EA4DB Madrid ES current weather conditions

sailwx.info

Wind at 0 knots gusting 3

Air temperature 17.2° C
Dewpoint 11.9° C

Last reported at 2014-Oct-22 06:51 UTC.
Time now 2014-Oct-22 07:54 UTC

Location: N 40°25' W 003°39'.
View on Google Maps.

See reports from other nearby stations

  
Tides and Currents Weather Stations Pressure Air Temp Water Temp Dewpoint Dewpoint Depression Visibility Wind Speed Wind Dir Waves Ship Positions
date/time (UTC)wind fromknots sea level pressurealtimeterstation pressurevisibilityair tempwater tempwave heightnotes
2014-Oct-22 06:51 17.2
2014-Oct-22 06:46 090 0 gusting 3 16.7
2014-Oct-22 06:41 315 1 gusting 3 17.2
2014-Oct-22 06:36 045 0 gusting 2 16.7
2014-Oct-22 06:31 045 16.7
2014-Oct-22 06:26 135 16.7
2014-Oct-22 06:21 135 16.7
2014-Oct-22 06:16 045 16.7
2014-Oct-22 06:11 090 17.2
2014-Oct-22 06:06 180 17.2
2014-Oct-22 06:01 180 17.2
2014-Oct-22 05:56 180 0 gusting 1 17.8
2014-Oct-22 05:51 225 17.8
2014-Oct-22 05:46 135 17.8
2014-Oct-22 05:41 225 17.8
2014-Oct-22 05:36 135 17.8
2014-Oct-22 05:31 180 17.8
2014-Oct-22 05:26 225 17.8
2014-Oct-22 05:21 225 18.3
2014-Oct-22 05:16 180 18.3
2014-Oct-22 05:11 225 0 gusting 1 18.3
2014-Oct-22 05:06 180 1 gusting 1 18.9
2014-Oct-22 05:01 180 1 gusting 1 18.9
2014-Oct-22 04:56 180 18.3
2014-Oct-22 04:51 315 18.9
2014-Oct-22 04:46 045 18.9
2014-Oct-22 04:41 090 0 gusting 3 18.9
2014-Oct-22 04:36 18.9
2014-Oct-22 04:31 18.3
2014-Oct-22 04:26 045 0 gusting 3 18.3
2014-Oct-22 04:21 315 1 gusting 3 18.3
2014-Oct-22 04:16 045 0 gusting 4 18.3
2014-Oct-22 04:11 135 18.3
2014-Oct-22 04:06 225 18.3
2014-Oct-22 04:01 225 18.3
2014-Oct-22 03:56 315 18.3
2014-Oct-22 03:51 180 18.3
2014-Oct-22 03:46 090 18.9
2014-Oct-22 03:41 225 18.3
2014-Oct-22 03:36 180 18.9
2014-Oct-22 03:31 045 18.9
2014-Oct-22 03:26 135 18.9
2014-Oct-22 03:21 090 18.9
2014-Oct-22 03:16 045 0 gusting 3 18.9
2014-Oct-22 03:11 090 18.9
2014-Oct-22 03:06 225 18.9
2014-Oct-22 03:01 225 18.9
2014-Oct-22 02:56 225 18.9
2014-Oct-22 02:51 225 18.9
2014-Oct-22 02:46 225 19.4
2014-Oct-22 02:41 045 19.4
2014-Oct-22 02:36 090 19.4
2014-Oct-22 02:31 045 20.0
2014-Oct-22 02:26 315 0 gusting 3 20.0
2014-Oct-22 02:21 315 1 gusting 2 20.0
2014-Oct-22 02:16 090 19.4
2014-Oct-22 02:11 090 0 gusting 2 20.0
2014-Oct-22 02:06 21.1
2014-Oct-22 02:01 21.1
2014-Oct-22 01:56 090 20.6
2014-Oct-22 01:51 090 21.1
2014-Oct-22 01:46 21.1
2014-Oct-22 01:41 21.1
2014-Oct-22 01:36 090 21.7
2014-Oct-22 01:31 090 21.7
2014-Oct-22 01:26 22.2
2014-Oct-22 01:21 315 1 gusting 5 22.2
2014-Oct-22 01:16 315 1 gusting 4 22.8
2014-Oct-22 01:11 315 1 gusting 6 22.2
2014-Oct-22 01:06 22.8
2014-Oct-22 01:01 22.8
2014-Oct-22 00:56 315 2 gusting 6 22.8
2014-Oct-22 00:51 270 1 gusting 5 22.2
2014-Oct-22 00:46 225 3 gusting 6 21.7
2014-Oct-22 00:41 180 0 gusting 3 21.7
2014-Oct-22 00:36 180 21.1
2014-Oct-22 00:31 270 21.7
2014-Oct-22 00:26 225 21.7
2014-Oct-22 00:21 045 21.1
2014-Oct-22 00:16 225 21.1
2014-Oct-22 00:11 135 21.7
2014-Oct-22 00:06 225 21.7
2014-Oct-22 00:01 225 21.7
2014-Oct-21 23:56 090 22.2
2014-Oct-21 23:51 270 22.8
2014-Oct-21 23:46 315 22.8
2014-Oct-21 23:41 293 1 gusting 4 22.8
2014-Oct-21 23:36 22.8
2014-Oct-21 23:31 090 0 gusting 3 22.2
2014-Oct-21 23:26 270 22.8
2014-Oct-21 23:21 045 0 gusting 2 22.8
2014-Oct-21 23:16 270 22.8
2014-Oct-21 23:11 315 1 gusting 6 22.8
2014-Oct-21 23:06 22.8
2014-Oct-21 23:01 248 0 gusting 5 23.3
2014-Oct-21 22:56 315 3 gusting 6 22.8
2014-Oct-21 22:51 315 2 gusting 5 23.3
2014-Oct-21 22:46 23.3
2014-Oct-21 22:41 270 1 gusting 6 23.3
2014-Oct-21 22:36 315 3 gusting 6 23.9
2014-Oct-21 22:28 315 1 gusting 6 23.9
2014-Oct-21 22:22 315 3 gusting 6 24.4
2014-Oct-21 22:17 315 3 gusting 6 23.9
2014-Oct-21 22:13 315 4 gusting 9 23.9
2014-Oct-21 22:07 293 2 gusting 7 23.9
2014-Oct-21 22:01 315 2 gusting 7 23.9
2014-Oct-21 21:56 315 1 gusting 7 23.9
2014-Oct-21 21:51 270 0 gusting 5 23.9
2014-Oct-21 21:46 270 1 gusting 6 25.0
2014-Oct-21 21:41 24.4
2014-Oct-21 21:36 315 5 gusting 9 24.4
2014-Oct-21 21:31 315 6 gusting 9 24.4
2014-Oct-21 21:26 270 3 gusting 7 24.4
2014-Oct-21 21:21 270 4 gusting 9 24.4
2014-Oct-21 21:16 315 1 gusting 6 24.4
2014-Oct-21 21:11 270 2 gusting 6 24.4
2014-Oct-21 21:06 315 1 gusting 6 24.4
2014-Oct-21 21:01 225 1 gusting 9 24.4
2014-Oct-21 20:56 24.4
2014-Oct-21 20:51 270 2 gusting 6 25.0
2014-Oct-21 20:46 225 1 gusting 6 25.0
2014-Oct-21 20:36 315 1 gusting 6 25.0
2014-Oct-21 20:31 315 1 gusting 4 24.4
2014-Oct-21 20:26 270 1 gusting 6 25.0
2014-Oct-21 20:21 315 1 gusting 5 25.6
2014-Oct-21 20:16 315 2 gusting 6 25.6
2014-Oct-21 20:11 25.6
2014-Oct-21 20:06 315 1 gusting 3 26.1
2014-Oct-21 20:01 270 1 gusting 6 25.6
2014-Oct-21 19:56 270 2 gusting 5 25.6
2014-Oct-21 19:51 315 1 gusting 3 26.1
2014-Oct-21 19:46 315 1 gusting 3 25.6
2014-Oct-21 19:41 270 1 gusting 2 25.6
2014-Oct-21 19:36 315 1 gusting 3 25.6
2014-Oct-21 19:31 315 1 gusting 4 25.6
2014-Oct-21 19:26 315 1 gusting 5 25.6
2014-Oct-21 19:21 315 1 gusting 5 25.6
2014-Oct-21 19:16 315 1 gusting 4 26.1
2014-Oct-21 19:11 315 2 gusting 7 26.1
2014-Oct-21 19:06 315 3 gusting 5 26.1
2014-Oct-21 19:01 315 1 gusting 6 25.6
2014-Oct-21 18:56 315 1 gusting 5 26.1
2014-Oct-21 18:51 315 1 gusting 3 25.6
2014-Oct-21 18:46 26.1
2014-Oct-21 18:41 315 2 gusting 5 26.7
2014-Oct-21 18:36 315 2 gusting 5 26.1
2014-Oct-21 18:31 315 1 gusting 5 26.7
2014-Oct-21 18:26 315 4 gusting 8 26.1
2014-Oct-21 18:21 315 1 gusting 7 26.7
2014-Oct-21 18:16 315 2 gusting 9 26.7
2014-Oct-21 18:11 315 2 gusting 5 27.2
2014-Oct-21 18:06 315 1 gusting 2 26.7
2014-Oct-21 18:01 315 2 gusting 6 27.2
2014-Oct-21 17:56 225 3 gusting 6 27.8
2014-Oct-21 17:51 315 3 gusting 6 27.2
2014-Oct-21 17:46 315 3 gusting 6 27.2
2014-Oct-21 17:41 315 3 gusting 6 27.2
2014-Oct-21 17:36 27.2
2014-Oct-21 17:31 315 2 gusting 6 27.8
2014-Oct-21 17:26 315 1 gusting 7 27.8
2014-Oct-21 17:21 293 1 gusting 4 27.8
2014-Oct-21 17:16 315 1 gusting 4 28.3
2014-Oct-21 17:11 270 1 gusting 4 28.3
2014-Oct-21 17:06 270 2 gusting 4 29.4
2014-Oct-21 17:01 270 2 gusting 4 29.4
2014-Oct-21 16:56 270 0 gusting 5 28.3
2014-Oct-21 16:51 270 1 gusting 6 30.0
2014-Oct-21 16:46 248 0 gusting 3 29.4
2014-Oct-21 16:41 270 1 gusting 6 29.4
2014-Oct-21 16:36 225 3 gusting 6 29.4
2014-Oct-21 16:31 180 1 gusting 6 30.0
2014-Oct-21 16:26 180 1 gusting 5 30.6
2014-Oct-21 16:21 180 2 gusting 8 30.6
2014-Oct-21 16:16 225 3 gusting 6 30.6
2014-Oct-21 16:11 225 1 gusting 8 31.1
2014-Oct-21 16:06 225 31.1
2014-Oct-21 16:01 315 31.1
2014-Oct-21 15:56 225 3 gusting 5 31.7
2014-Oct-21 15:51 225 2 gusting 4 31.7
2014-Oct-21 15:46 225 3 gusting 5 31.7
2014-Oct-21 15:41 225 2 gusting 4 31.7
2014-Oct-21 15:36 225 2 gusting 7 31.7
2014-Oct-21 15:31 31.7
2014-Oct-21 15:26 225 1 gusting 4 31.7
2014-Oct-21 15:21 225 2 gusting 8 31.1
2014-Oct-21 15:16 225 0 gusting 5 31.7
2014-Oct-21 15:11 225 2 gusting 6 31.7
2014-Oct-21 15:06 270 1 gusting 4 31.7
2014-Oct-21 15:01 225 2 gusting 7 31.1
2014-Oct-21 14:56 225 2 gusting 6 31.7
2014-Oct-21 14:36 315 0 gusting 6 31.7
2014-Oct-21 14:31 270 1 gusting 7 31.7
2014-Oct-21 14:26 225 4 gusting 9 31.7
2014-Oct-21 14:21 203 2 gusting 6 31.7
2014-Oct-21 14:16 225 3 gusting 6 31.7
2014-Oct-21 14:11 180 3 gusting 5 31.1
2014-Oct-21 14:06 180 5 gusting 6 31.1
2014-Oct-21 14:01 338 3 gusting 6 31.7
2014-Oct-21 13:56 248 2 gusting 6 32.2
2014-Oct-21 13:36 180 1 gusting 7 31.1
2014-Oct-21 13:31 315 1 gusting 6 31.7
2014-Oct-21 13:26 180 1 gusting 4 31.7
2014-Oct-21 13:21 180 2 gusting 6 31.1
2014-Oct-21 13:16 225 2 gusting 6 31.1
2014-Oct-21 13:11 225 1 gusting 3 30.6
2014-Oct-21 13:06 270 1 gusting 1 30.6
2014-Oct-21 13:01 180 1 gusting 5 30.6
2014-Oct-21 12:56 225 1 gusting 6 30.6
2014-Oct-21 12:51 270 1 gusting 4 30.6
2014-Oct-21 12:46 225 1 gusting 6 30.6
2014-Oct-21 12:41 180 0 gusting 4 30.0
2014-Oct-21 12:36 315 1 gusting 5 30.0
2014-Oct-21 12:31 180 2 gusting 5 29.4
2014-Oct-21 12:26 180 1 gusting 3 29.4
2014-Oct-21 12:21 180 3 gusting 5 30.0
2014-Oct-21 12:16 225 1 gusting 4 30.0
2014-Oct-21 12:11 248 1 gusting 4 30.0
2014-Oct-21 12:06 225 0 gusting 2 29.4
2014-Oct-21 12:01 135 2 gusting 4 28.9
2014-Oct-21 11:56 270 1 gusting 6 29.4
2014-Oct-21 11:51 270 0 gusting 3 28.9
2014-Oct-21 11:46 180 1 gusting 3 28.9
2014-Oct-21 11:41 225 1 gusting 5 28.3
2014-Oct-21 11:36 225 0 gusting 5 27.8
2014-Oct-21 11:31 225 27.2
2014-Oct-21 11:26 248 1 gusting 6 27.8
2014-Oct-21 11:21 270 2 gusting 4 27.8
2014-Oct-21 11:16 225 2 gusting 4 27.8
2014-Oct-21 11:11 225 3 gusting 5 28.3
2014-Oct-21 11:06 270 1 gusting 5 27.2
2014-Oct-21 11:01 225 1 gusting 5 27.8
2014-Oct-21 10:56 225 2 gusting 6 28.3
2014-Oct-21 10:51 180 3 gusting 5 30.0
2014-Oct-21 10:46 180 0 gusting 2 30.6
2014-Oct-21 10:41 30.6
2014-Oct-21 10:36 315 30.6
2014-Oct-21 10:31 30.6
2014-Oct-21 10:26 315 30.0
2014-Oct-21 10:21 090 30.0
2014-Oct-21 10:16 090 29.4
2014-Oct-21 10:11 270 28.3
2014-Oct-21 10:06 180 27.2
2014-Oct-21 10:01 270 1 gusting 3 26.7
2014-Oct-21 09:56 225 2 gusting 4 27.8
2014-Oct-21 09:51 225 28.9
2014-Oct-21 09:46 225 28.9
2014-Oct-21 09:41 225 28.3
2014-Oct-21 09:36 270 27.8
2014-Oct-21 09:31 248 27.8
2014-Oct-21 09:26 28.3
2014-Oct-21 09:21 28.3
2014-Oct-21 09:16 180 27.8
2014-Oct-21 09:11 27.8
2014-Oct-21 09:06 27.2
2014-Oct-21 09:01 045 27.2
2014-Oct-21 08:56 135 27.2
2014-Oct-21 08:51 135 27.2
2014-Oct-21 08:46 180 26.7
2014-Oct-21 08:41 045 26.7
2014-Oct-21 08:36 135 26.7
2014-Oct-21 08:31 26.1
2014-Oct-21 08:26 25.6
2014-Oct-21 08:21 25.0
2014-Oct-21 08:16 270 24.4
2014-Oct-21 08:11 270 23.3
2014-Oct-21 08:06 045 23.3
2014-Oct-21 08:01 135 22.8
2014-Oct-21 07:56 21.7
2014-Oct-21 07:51 203 21.7
2014-Oct-21 07:46 090 21.1
2014-Oct-21 07:41 135 21.1
2014-Oct-21 07:36 225 20.0
2014-Oct-21 07:31 225 18.9
2014-Oct-21 07:26 225 18.9
2014-Oct-21 07:21 225 17.2
2014-Oct-21 07:16 045 17.2
2014-Oct-21 07:11 090 16.7
2014-Oct-21 07:06 090 15.6
2014-Oct-21 07:01 090 15.6
2014-Oct-21 06:56 090 15.6
2014-Oct-21 06:51 225 15.6
2014-Oct-21 06:46 225 15.6
2014-Oct-21 06:41 225 15.6
2014-Oct-21 06:36 225 1 gusting 2 16.1
2014-Oct-21 06:31 225 0 gusting 1 15.6
2014-Oct-21 06:26 225 15.6
2014-Oct-21 06:21 180 15.6
2014-Oct-21 06:16 225 15.6
2014-Oct-21 06:11 180 15.6
2014-Oct-21 06:06 090 16.1
2014-Oct-21 06:01 090 16.1
2014-Oct-21 05:56 15.6
2014-Oct-21 05:51 045 0 gusting 1 15.6
2014-Oct-21 05:46 090 15.6
2014-Oct-21 05:41 045 16.1
2014-Oct-21 05:36 045 16.1
2014-Oct-21 05:31 090 15.6
2014-Oct-21 05:26 090 15.6
2014-Oct-21 05:21 135 15.6
2014-Oct-21 05:16 135 15.6
2014-Oct-21 05:11 090 16.1
2014-Oct-21 05:06 16.1
2014-Oct-21 05:01 16.1
2014-Oct-21 04:56 15.6
2014-Oct-21 04:51 15.6
2014-Oct-21 04:46 15.6
2014-Oct-21 04:41 15.6
2014-Oct-21 04:36 15.6
2014-Oct-21 04:31 16.1
2014-Oct-21 04:26 16.1
2014-Oct-21 04:21 16.1
2014-Oct-21 04:16 16.1
2014-Oct-21 04:11 090 16.1
2014-Oct-21 04:06 090 16.7
2014-Oct-21 04:01 090 16.7
2014-Oct-21 03:56 090 16.1
2014-Oct-21 03:51 045 16.1
2014-Oct-21 03:46 045 16.7
2014-Oct-21 03:41 090 16.7
2014-Oct-21 03:36 045 16.7
2014-Oct-21 03:31 045 16.7
2014-Oct-21 03:26 045 16.7
2014-Oct-21 03:21 045 16.7
2014-Oct-21 03:16 045 0 gusting 1 16.7
2014-Oct-21 03:11 090 15.6
2014-Oct-21 03:06 090 16.7
2014-Oct-21 03:01 090 16.7
2014-Oct-21 02:56 090 16.1
2014-Oct-21 02:51 090 16.7
2014-Oct-21 02:46 135 16.1
2014-Oct-21 02:41 180 16.1
2014-Oct-21 02:36 180 15.6
2014-Oct-21 02:31 180 16.7
2014-Oct-21 02:26 090 16.7
2014-Oct-21 02:21 090 16.7
2014-Oct-21 02:16 16.7
2014-Oct-21 02:11 045 16.7
2014-Oct-21 02:06 17.2
2014-Oct-21 02:01 17.2
2014-Oct-21 01:56 090 17.2
2014-Oct-21 01:51 045 17.2
2014-Oct-21 01:46 045 17.2
2014-Oct-21 01:41 045 0 gusting 1 17.8
2014-Oct-21 01:36 090 0 gusting 2 17.8
2014-Oct-21 01:31 045 17.8
2014-Oct-21 01:26 18.3
2014-Oct-21 01:21 17.8
2014-Oct-21 01:16 17.8
2014-Oct-21 01:11 18.3
2014-Oct-21 01:06 045 0 gusting 1 18.3
2014-Oct-21 01:01 045 0 gusting 3 18.3
2014-Oct-21 00:56 18.9
2014-Oct-21 00:51 315 0 gusting 2 18.3
2014-Oct-21 00:46 18.9
2014-Oct-21 00:41 315 0 gusting 3 18.3
2014-Oct-21 00:36 090 1 gusting 3 18.9
2014-Oct-21 00:31 045 1 gusting 3 18.9
2014-Oct-21 00:26 18.9
2014-Oct-21 00:21 090 0 gusting 3 18.9
2014-Oct-21 00:16 18.9
2014-Oct-21 00:11 090 19.4
2014-Oct-21 00:06 315 18.9
2014-Oct-21 00:01 315 18.9
2014-Oct-20 23:56 18.9
2014-Oct-20 23:51 045 19.4
2014-Oct-20 23:46 068 18.9
2014-Oct-20 23:41 045 19.4
2014-Oct-20 23:36 045 19.4
2014-Oct-20 23:31 045 0 gusting 2 18.9
2014-Oct-20 23:26 090 19.4
2014-Oct-20 23:21 090 19.4
2014-Oct-20 23:16 045 1 gusting 2 19.4
2014-Oct-20 23:11 045 20.0
2014-Oct-20 23:06 270 19.4
2014-Oct-20 23:01 270 19.4
2014-Oct-20 22:56 045 20.0
2014-Oct-20 22:51 090 0 gusting 1 19.4
2014-Oct-20 22:46 045 19.4
2014-Oct-20 22:41 20.0
2014-Oct-20 22:36 045 1 gusting 3 19.4
2014-Oct-20 22:31 19.4
2014-Oct-20 22:26 20.0
2014-Oct-20 22:21 20.0
2014-Oct-20 22:16 19.4
2014-Oct-20 22:11 20.0
2014-Oct-20 22:06 20.0
2014-Oct-20 22:01 20.0
2014-Oct-20 21:56 045 20.6
2014-Oct-20 21:51 090 20.0
2014-Oct-20 21:46 20.0
2014-Oct-20 21:41 045 20.6
2014-Oct-20 21:36 20.6
2014-Oct-20 21:31 045 21.1
2014-Oct-20 21:26 20.6
2014-Oct-20 21:21 315 0 gusting 1 20.6
2014-Oct-20 21:16 20.6
2014-Oct-20 21:11 045 1 gusting 3 20.6
2014-Oct-20 21:06 090 21.1
2014-Oct-20 21:01 090 21.1
2014-Oct-20 20:56 045 21.1
2014-Oct-20 20:51 090 1 gusting 1 21.1
2014-Oct-20 20:46 045 20.0
2014-Oct-20 20:41 090 20.0
2014-Oct-20 20:36 090 20.0
2014-Oct-20 20:31 090 20.0
2014-Oct-20 20:26 090 20.0
2014-Oct-20 20:21 090 20.6
2014-Oct-20 20:16 090 21.1
2014-Oct-20 20:11 135 21.7
2014-Oct-20 20:06 135 21.1
2014-Oct-20 20:01 135 21.1
2014-Oct-20 19:56 090 0 gusting 1 20.6
2014-Oct-20 19:51 135 20.6
2014-Oct-20 19:46 135 21.1
2014-Oct-20 19:41 135 21.1
2014-Oct-20 19:36 045 21.1
2014-Oct-20 19:31 21.7
2014-Oct-20 19:26 135 22.2
2014-Oct-20 19:21 135 21.7
2014-Oct-20 19:16 135 22.2
2014-Oct-20 19:11 045 22.8
2014-Oct-20 19:06 045 21.7
2014-Oct-20 19:01 045 21.7
2014-Oct-20 18:56 090 21.7
2014-Oct-20 18:51 090 21.7
2014-Oct-20 18:46 090 21.7
2014-Oct-20 18:41 090 22.8
2014-Oct-20 18:36 090 22.8
2014-Oct-20 18:31 090 23.3
2014-Oct-20 18:26 090 22.8
2014-Oct-20 18:21 090 22.8
2014-Oct-20 18:16 090 0 gusting 1 22.8
2014-Oct-20 18:11 090 23.3
2014-Oct-20 18:06 135 22.8
2014-Oct-20 18:01 135 22.8
2014-Oct-20 17:56 135 22.8
2014-Oct-20 17:51 135 23.3
2014-Oct-20 17:46 135 23.9
2014-Oct-20 17:41 135 24.4
2014-Oct-20 17:36 135 24.4
2014-Oct-20 17:31 045 25.6
2014-Oct-20 17:26 045 25.6
2014-Oct-20 17:21 090 25.6
2014-Oct-20 17:16 090 26.1
2014-Oct-20 17:11 090 27.2
2014-Oct-20 17:06 090 26.7
2014-Oct-20 17:01 135 27.2
2014-Oct-20 16:56 135 28.3
2014-Oct-20 16:51 135 28.3
2014-Oct-20 16:46 135 28.9
2014-Oct-20 16:41 090 29.4
2014-Oct-20 16:36 045 30.0
2014-Oct-20 16:31 315 30.6
2014-Oct-20 16:26 225 31.1
2014-Oct-20 16:21 31.1
2014-Oct-20 16:16 090 31.1
2014-Oct-20 16:11 045 0 gusting 1 31.7
2014-Oct-20 16:06 32.2
2014-Oct-20 16:01 32.8
2014-Oct-20 15:56 045 32.2
2014-Oct-20 15:51 315 32.2
2014-Oct-20 15:46 315 32.2
2014-Oct-20 15:41 315 31.7
2014-Oct-20 15:36 31.7
2014-Oct-20 15:31 045 31.1
2014-Oct-20 15:26 135 31.1
2014-Oct-20 15:21 045 31.7
2014-Oct-20 15:16 31.1
2014-Oct-20 15:11 045 30.6
2014-Oct-20 15:06 045 31.1
2014-Oct-20 15:01 045 0 gusting 1 31.7
2014-Oct-20 14:56 270 31.7
2014-Oct-20 14:51 270 31.1
2014-Oct-20 14:46 315 0 gusting 2 31.1
2014-Oct-20 14:41 090 31.1
2014-Oct-20 14:36 315 0 gusting 3 32.2
2014-Oct-20 14:31 32.2
2014-Oct-20 14:26 32.2
2014-Oct-20 14:21 270 31.7
2014-Oct-20 14:16 090 0 gusting 2 31.7
2014-Oct-20 14:11 045 0 gusting 1 31.7
2014-Oct-20 14:06 31.1
2014-Oct-20 14:01 31.1
2014-Oct-20 13:56 045 0 gusting 3 31.7
2014-Oct-20 13:51 045 1 gusting 2 32.2
2014-Oct-20 13:46 135 32.2
2014-Oct-20 13:41 31.7
2014-Oct-20 13:36 31.7
2014-Oct-20 13:31 090 0 gusting 3 31.1
2014-Oct-20 13:26 090 1 gusting 3 31.1
2014-Oct-20 13:21 045 30.6
2014-Oct-20 13:16 315 0 gusting 3 30.6
2014-Oct-20 13:11 045 1 gusting 3 30.6
2014-Oct-20 13:06 315 0 gusting 3 31.1
2014-Oct-20 13:01 180 31.1
2014-Oct-20 12:56 045 30.6
2014-Oct-20 12:51 045 0 gusting 1 31.1
2014-Oct-20 12:46 135 0 gusting 3 30.6
2014-Oct-20 12:41 270 1 gusting 2 30.0
2014-Oct-20 12:36 045 0 gusting 3 29.4
2014-Oct-20 12:31 30.0
2014-Oct-20 12:26 090 28.3
2014-Oct-20 12:21 315 28.9
2014-Oct-20 12:16 045 1 gusting 3 29.4
2014-Oct-20 12:11 28.9
2014-Oct-20 12:06 28.3
2014-Oct-20 12:01 180 27.8
2014-Oct-20 11:56 27.8
2014-Oct-20 11:51 068 0 gusting 3 27.2
2014-Oct-20 11:46 27.8
2014-Oct-20 11:41 27.8
2014-Oct-20 11:36 315 0 gusting 3 28.3
2014-Oct-20 11:31 090 0 gusting 3 28.3
2014-Oct-20 11:26 293 1 gusting 3 28.3
2014-Oct-20 11:21 045 0 gusting 3 27.8
2014-Oct-20 11:16 315 3 gusting 5 27.8
2014-Oct-20 11:11 090 0 gusting 2 27.8
2014-Oct-20 11:06 045 27.8
2014-Oct-20 11:01 090 1 gusting 3 27.2
2014-Oct-20 10:56 26.7
2014-Oct-20 10:51 27.8
2014-Oct-20 10:46 045 26.7
2014-Oct-20 10:41 045 1 gusting 3 26.7
2014-Oct-20 10:36 26.7
2014-Oct-20 10:31 045 0 gusting 3 26.1
2014-Oct-20 10:26 045 1 gusting 3 26.1
2014-Oct-20 10:21 090 0 gusting 3 26.7
2014-Oct-20 10:16 135 1 gusting 3 27.8
2014-Oct-20 10:11 090 1 gusting 3 27.2
2014-Oct-20 10:06 045 0 gusting 3 26.7
2014-Oct-20 10:01 180 26.7
2014-Oct-20 09:56 045 26.1
2014-Oct-20 09:51 135 26.1
2014-Oct-20 09:46 270 0 gusting 2 26.1
2014-Oct-20 09:41 113 0 gusting 3 25.6
2014-Oct-20 09:36 293 25.6
2014-Oct-20 09:31 045 0 gusting 2 25.0
2014-Oct-20 09:26 045 0 gusting 2 25.0
2014-Oct-20 09:21 315 0 gusting 3 25.0
2014-Oct-20 09:16 24.4
2014-Oct-20 09:11 315 0 gusting 2 25.0
2014-Oct-20 09:06 24.4
2014-Oct-20 09:01 045 0 gusting 3 25.0
2014-Oct-20 08:56 315 23.3
2014-Oct-20 08:51 22.8
2014-Oct-20 08:46 22.8
2014-Oct-20 08:41 045 0 gusting 3 22.8
2014-Oct-20 08:36 315 0 gusting 3 22.8
2014-Oct-20 08:31 135 0 gusting 5 22.2
2014-Oct-20 08:26 045 0 gusting 3 22.2
2014-Oct-20 08:21 090 0 gusting 3 22.2
2014-Oct-20 08:16 045 0 gusting 3 21.7
2014-Oct-20 08:11 21.1
2014-Oct-20 08:06 21.1
2014-Oct-20 08:01 21.7
2014-Oct-20 07:56 315 21.7
2014-Oct-20 07:51 225 21.1
2014-Oct-20 07:46 20.6
2014-Oct-20 07:41 090 19.4
2014-Oct-20 07:36 18.9
2014-Oct-20 07:31 180 0 gusting 1 18.3
2014-Oct-20 07:26 090 0 gusting 1 17.8
2014-Oct-20 07:21 068 17.2
2014-Oct-20 07:16 135 0 gusting 2 16.7
2014-Oct-20 07:11 090 16.7
2014-Oct-20 07:06 16.1
2014-Oct-20 07:01 16.1